Location: Vinland
(47.7731°N, 122.6974°W)
Time: 07:14:49
(UTC+00:00)

Vanguard 2 - Pass Details

Date: 27 April 2024
Orbit: 552 x 2914 km, 32.9° (Epoch: 25 May)

Event Time Altitude Azimuth Distance (km) Brightness Sun altitude
Exits shadow 06:49:07 18° 114° (ESE) 4,414 11.0 -25.7°
Drops below altitude 10° 06:54:10 10° 98° (E) 5,366 11.5 -26.0°
Sets 07:00:07 0° 87° (E) 6,624 12.1 -26.4°
